User: anonymous   Login
Location: Unspecified
(44.4377°N, 88.0525°W)
Time: 21:02:00
(UTC-05:00)
Language:

Okean 3 - Orbit

View from above orbital plane
View from above orbital plane
View from above satellite
View from above satellite

Ground track
Ground track

The orbit data is extracted from the following two-line orbital elements,

1 21397U 91039A   19294.89707346  .00000237  00000-0  20414-4 0  9990
2 21397  82.5242  44.3826 0016427 249.3311 110.6148 14.92846783537588
Epoch (UTC): 21 October 2019 21:31:47
Eccentricity: 0.0016427
inclination: 82.5242°
perigee height: 577 km
apogee height: 600 km
right ascension of ascending node: 44.3826°
argument of perigee: 249.3311°
revolutions per day: 14.92846783
mean anomaly at epoch: 110.6148°
orbit number at epoch: 53758

The dashed part of the orbit path shows where the satellite is in the earth's shadow,  

DLR